Mountain Home, AR

3:41 AM CDT on September 25, 2017 (GMT -0500)
Baxter County Regional

Weather History for KBPK - February, 2014

Change the Weather History Date:

Thursday, February 6, 2014

  Actual Average (KFLP) Record (KFLP)
Temperature  
Mean Temperature 14 °F -  
Max Temperature 19 °F 48 °F 69 °F (2007)
Min Temperature 8 °F 29 °F 10 °F (2014)
Degree Days  
Heating Degree Days 52    
Moisture  
Dew Point 1 °F    
Average Humidity 59    
Maximum Humidity 73    
Minimum Humidity 44    
Precipitation  
Precipitation 0.01 in - - ()
Sea Level Pressure  
Sea Level Pressure 30.53 in    
Wind  
Wind Speed 4 mph (NNW)    
Max Wind Speed 7 mph    
Max Gust Speed -    
Visibility 9 miles    
Events Snow    
Averages and records for this station are not official NWS values.
T = Trace of Precipitation, MM = Missing Value Source: NWS Daily Summary

Daily Weather History Graph

Daily Weather History Graph

Search for Another Location

Airport or City:

Trip Planner

Search our weather history database for the weather conditions in past years. The results will help you decide how hot, cold, wet, or windy it might be!

Date:

Astronomy

Feb. 06, 2014 Rise Set
Actual Time 7:06 AM CST 5:41 PM CST
Civil Twilight 6:40 AM CST 6:08 PM CST
Nautical Twilight 6:09 AM CST 6:38 PM CST
Astronomical Twilight 5:39 AM CST 7:09 PM CST
Moon 11:14 AM CST (2/6) 12:23 AM CST (2/6)
Length of Visible Light 11h 28m
Length of Day
10h 34m
Waxing Crescent, 49% of the Moon is Illuminated
Feb 6
Waxing Crescent
Feb 6
First Quarter
Feb 14
Full
Feb 22
Last Quarter
Mar 1
New

Hourly Weather History & Observations

Time (CST) Temp. Windchill Dew Point Humidity Pressure Visibility Wind Dir Wind Speed Gust Speed Precip Events Conditions
12:53 AM 12.0 °F 1.5 °F 3.9 °F 70% 30.56 in 10.0 mi North 6.9 mph - N/A   Overcast
1:53 AM 10.9 °F 0.2 °F 3.0 °F 70% 30.55 in 10.0 mi NNW 6.9 mph - N/A   Overcast
2:53 AM 10.0 °F -0.9 °F 3.0 °F 73% 30.57 in 10.0 mi NNW 6.9 mph - N/A   Overcast
3:53 AM 9.0 °F 2.4 °F 1.9 °F 73% 30.57 in 10.0 mi Variable 3.5 mph - N/A   Scattered Clouds
4:45 AM 8.6 °F - 1.4 °F 73% 30.54 in 10.0 mi Calm Calm - N/A   Mostly Cloudy
4:53 AM 9.0 °F 0.6 °F 1.0 °F 70% 30.58 in 10.0 mi NNW 4.6 mph - 0.01 in   Mostly Cloudy
5:07 AM 8.6 °F -1.3 °F 1.4 °F 73% 30.53 in 10.0 mi North 5.8 mph - N/A   Scattered Clouds
5:53 AM 8.1 °F -0.5 °F -0.0 °F 70% 30.60 in 10.0 mi NNW 4.6 mph - N/A   Clear
6:53 AM 8.1 °F -0.5 °F -0.0 °F 70% 30.62 in 10.0 mi NNW 4.6 mph - N/A   Partly Cloudy
7:53 AM 8.1 °F -2.0 °F -0.9 °F 67% 30.63 in 10.0 mi NNW 5.8 mph - N/A   Overcast
8:53 AM 9.0 °F -2.2 °F -2.0 °F 61% 30.62 in 10.0 mi NNW 6.9 mph - N/A   Overcast
9:53 AM 10.0 °F 3.6 °F -2.0 °F 58% 30.62 in 10.0 mi NNW 3.5 mph - N/A   Mostly Cloudy
10:53 AM 14.0 °F 3.9 °F -0.9 °F 52% 30.60 in 10.0 mi NW 6.9 mph - N/A   Partly Cloudy
11:53 AM 15.1 °F 6.4 °F -0.0 °F 51% 30.58 in 10.0 mi Variable 5.8 mph - N/A   Overcast
12:53 PM 16.0 °F 6.3 °F 1.0 °F 52% 30.54 in 10.0 mi NNW 6.9 mph - N/A   Overcast
1:53 PM 17.1 °F 11.7 °F 3.9 °F 56% 30.52 in 3.0 mi Variable 3.5 mph - 0.00 in Snow Light Snow
2:53 PM 19.0 °F 12.3 °F 5.0 °F 54% 30.52 in 10.0 mi West 4.6 mph - 0.00 in   Overcast
3:53 PM 19.9 °F 14.9 °F 3.0 °F 48% 30.51 in 10.0 mi Variable 3.5 mph - N/A   Overcast
4:53 PM 19.9 °F 13.4 °F 1.0 °F 44% 30.51 in 10.0 mi NNW 4.6 mph - N/A   Clear
5:53 PM 17.1 °F - 1.0 °F 50% 30.50 in 10.0 mi Calm Calm - N/A   Clear
6:53 PM 16.0 °F - -0.9 °F 47% 30.49 in 10.0 mi Calm Calm - N/A   Clear
7:01 PM 15.8 °F - -0.4 °F 49% 30.43 in 1.8 mi Calm Calm - N/A   Haze
7:11 PM 14.0 °F - 3.2 °F 62% 30.43 in 3.0 mi Calm Calm - N/A   Haze
7:20 PM 14.0 °F - -0.4 °F 53% 30.44 in 2.5 mi Calm Calm - N/A   Haze
7:28 PM 14.0 °F - -0.4 °F 53% 30.44 in 10.0 mi Calm Calm - N/A   Clear
7:53 PM 12.9 °F 6.9 °F 1.9 °F 62% 30.50 in 7.0 mi NNE 3.5 mph - N/A   Clear
8:53 PM 12.9 °F - -0.9 °F 54% 30.50 in 10.0 mi Calm Calm - N/A   Clear
9:53 PM 12.9 °F - -2.0 °F 51% 30.49 in 10.0 mi Calm Calm - N/A   Clear
10:53 PM 12.0 °F - -2.0 °F 53% 30.49 in 10.0 mi Calm Calm - N/A   Clear
11:53 PM 10.9 °F 2.9 °F -2.9 °F 54% 30.47 in 10.0 mi NE 4.6 mph - N/A   Clear